Simultaneous Nadir Overpasses (SNOs) Predictions

Prediction of SNOs between GOES-17 and METOP-C Satellite Orbit:

Table of predicted SNOs for the next 14.0 days since TLE Epoch: 3/11/2023
Index Date Time (GOES-17) GOES-17 Lat,Lon METOP-C Lat,Lon Distance(km) Time Diff (sec)
1 03/12/2023 04:42:49 -0.00,-104.72 -0.82,-108.27 404.88 80
2 03/13/2023 04:24:49 -0.00,-104.72 0.34,-103.28 164.94 80
3 03/14/2023 16:40:59 -0.00,-104.76 0.70,-107.83 350.61 80
4 03/15/2023 16:22:59 -0.00,-104.76 -0.41,-102.83 218.98 80
5 03/17/2023 04:39:17 0.01,-104.72 -0.61,-107.42 307.75 80
6 03/18/2023 04:21:17 0.00,-104.72 0.51,-102.42 261.91 80
7 03/19/2023 16:37:28 -0.01,-104.76 0.47,-106.99 253.57 80
8 03/20/2023 16:19:28 -0.00,-104.76 -0.65,-101.99 316.57 80
9 03/22/2023 04:35:45 0.01,-104.74 -0.39,-106.57 208.99 80
10 03/23/2023 04:17:43 0.00,-104.74 0.69,-101.56 361.30 80
11 03/24/2023 16:33:55 -0.01,-104.78 0.28,-106.13 153.75 80
